Location: Unspecified
(0.0000°N, 0.0000°E)
Time: 20:10:22
(UTC+00:00)

H-2A R/B - Visible Passes

Search period start: 24 June 2019 00:00
Search period end: 04 July 2019 00:00
Orbit: 734 x 836 km, 98.3° (Epoch: 24 June)

Date Brightness Start Highest point End Pass type
(mag) Time Alt. Az. Time Alt. Az. Time Alt. Az.
24 Jun 4.1 20:11:22 16° NNE 20:11:22 16° NNE 20:12:33 10° NNE visible
25 Jun 4.9 21:20:41 12° NW 21:20:41 12° NW 21:21:07 10° NW visible
26 Jun 4.3 20:49:24 19° NNW 20:49:24 19° NNW 20:50:46 10° NNW visible
27 Jun 4.1 20:18:06 18° NNE 20:18:06 18° NNE 20:19:33 10° N visible
28 Jun 4.3 19:46:49 11° NE 19:46:49 11° NE 19:47:09 10° NE visible
28 Jun 5.0 21:27:26 11° NW 21:27:26 11° NW 21:27:39 10° NW visible
29 Jun 4.4 20:56:09 18° NNW 20:56:09 18° NNW 20:57:31 10° NNW visible
30 Jun 4.0 20:24:52 20° NNE 20:24:52 20° NNE 20:26:30 10° N visible
01 Jul 4.2 19:53:35 13° NE 19:53:35 13° NE 19:54:28 10° NNE visible
02 Jul 4.5 21:02:55 18° NNW 21:02:55 18° NNW 21:04:13 10° NNW visible
03 Jul 4.0 20:31:39 21° N 20:31:39 21° N 20:33:24 10° N visible
